Regional Weather Roundup
Issued by NWS Goodland, KS

Home | Current Version | Previous Version | Graphics & Text | Print | Product List | Glossary On
Versions: 1 2 3 4 5 6 7 8 9 10 11 12 13 14 15 16 17 18 19 20 21 22 23 24 25 26 27 28 29 30 31 32 33 34 35 36 37 38 39 40 41 42 43 44 45 46 47 48 49 50
000
ASUS43 KGLD 291208
RWRGLD

GOODLAND FORECAST AREA HOURLY WEATHER ROUNDUP
NATIONAL WEATHER SERVICE GOODLAND KS
600 AM MDT FRI JUL 29 2016

...OFFICIAL OBSERVATIONS...

CITY           SKY/WX    TMP DP  RH WIND       PRES   REMARKS
GOODLAND KS    CLOUDY    61  59  93 CALM      30.12R
HILL CITY KS   MOCLDY    65  64  97 NE3       30.09R FOG
IMPERIAL NEB   CLEAR     60  58  92 NE5       30.12S
MCCOOK NEB     MOCLDY    58  56  93 SE3       30.10R
AKRON CO       CLEAR     58  55  90 N5        30.16S
BURLINGTON CO  CLEAR     60  57  89 CALM      30.16R
LIMON CO       MOCLDY    58  57  97 CALM      30.21F
$$

...UNOFFICIAL OBSERVATIONS...

CITY           SKY/WX    TMP DP  RH WIND       PRES   REMARKS
COLBY KS       CLEAR     63  63 100 N7        30.13R FOG
LENORA KS        N/A     63  32  31 MISG        N/A
NORTON KS      PTCLDY    61  57  88 NW3       30.09R FOG
SHARON SPRINGS   N/A     61  60  95 CALM        N/A
KIT CARSON CO    N/A     60  56  87 CALM        N/A
YUMA CO          N/A     60  58  94 CALM        N/A
$$




USA.gov is the U.S. government's official web portal to all federal, state and local government web resources and services.